Flag for Germany Weather past 2 weeks in Bremerhaven, Bremen, Germany

Now
45 °F

Drizzle. Fog.


Feels Like: 36 °F
Forecast: 47 / 52 °F
Wind: 21 mph from West

Location: Nordholz

Current Time: Dec 21, 2014 at 8:22:22 PM

Latest Report: Dec 21, 2014 at 7:20 PM


Visibility: 2 mi

Pressure: 29.95 "Hg

Humidity: 93%

Dew point: 43 °F

Location of BremerhavenLocation

Historic Weather in Bremerhaven — Graph

°F

Bremerhaven temperature yesterday

Maximum temperature yesterday: 45 °F (at 2:20 PM)
Minimum temperature yesterday: 37 °F (at 11:20 AM)
Average temperature yesterday: 42 °F

Past Weeks' High & Low Weather Summary

 TemperatureHumidityPressure
High52 °F (Dec 18, 6:20 PM)100% (Dec 6, 7:20 PM)30.30 "Hg (Dec 6, 7:20 PM)
Low32 °F (Dec 7, 2:20 AM)75% (Dec 13, 1:20 AM)29.12 "Hg (Dec 12, 12:20 PM)
Average40 °F90%29.78 "Hg
* Reported Dec 6 6:20 PM — Dec 21 6:20 PM, Bremerhaven, Weather by CustomWeather, © 2014

Note: Actual official high and low records may vary slightly from our data, if they occured in-between our weather recording intervals... More about our weather records

Advertising

Bremerhaven weather history for previous 24 hours

 ConditionsComfort  
Time TempWeatherWind HumidityBarometerVisibility
6:20 PM
Dec 21
45 °FDrizzle. Fog.22 mph93%29.98 "Hg2 mi
5:56 PM45 °FPassing clouds.21 mph93%29.98 "Hg6 mi
5:20 PM45 °FPartly cloudy.22 mph93%30.01 "HgN/A
4:20 PM45 °FPassing clouds.20 mph87%30.04 "Hg5 mi
3:20 PM45 °FDrizzle. Fog.17 mph87%30.04 "Hg2 mi
2:20 PM45 °FPartly sunny.21 mph87%30.07 "HgN/A
1:54 PM45 °FBroken clouds.21 mph87%30.09 "HgN/A
1:20 PM45 °FPartly sunny.18 mph87%30.09 "HgN/A
12:20 PM43 °FPartly sunny.18 mph93%30.12 "HgN/A
11:20 AM41 °FPartly sunny.16 mph93%30.15 "HgN/A
10:20 AM41 °FBroken clouds.17 mph93%30.15 "HgN/A
9:20 AM39 °FPartly sunny.15 mph93%30.18 "HgN/A
8:20 AM41 °FPassing clouds.15 mph87%30.18 "HgN/A
7:20 AM41 °FPassing clouds.15 mph87%30.18 "HgN/A
6:20 AM43 °FPassing clouds.14 mph81%30.18 "HgN/A
5:20 AM43 °FPassing clouds.15 mph81%30.15 "HgN/A
4:20 AM41 °FPassing clouds.15 mph87%30.15 "HgN/A
3:20 AM43 °FPassing clouds.23 mph76%30.12 "HgN/A
2:20 AM43 °FPassing clouds.20 mph81%30.12 "HgN/A
1:20 AM43 °FSprinkles. Passing clouds.28 mph76%30.09 "HgN/A
12:20 AM45 °FPassing clouds.25 mph76%30.07 "HgN/A
11:20 PM
Dec 20
45 °FPassing clouds.26 mph76%30.04 "HgN/A
10:20 PM43 °FPassing clouds.25 mph81%30.01 "HgN/A
9:20 PM43 °FPassing clouds.24 mph76%29.95 "HgN/A
8:20 PM43 °FPassing clouds.28 mph76%29.92 "HgN/A
Weather by CustomWeather, © 2014

See weather overviewHow to use our weather pages